Tracking 19476 objects as of 17-Jan-2019
HD Live streaming from Space Station
objects crossing your sky now

COSMOS 1621

Track COSMOS 1621 now!
10-day predictions
COSMOS 1621 is classified as:


NORAD ID: 15473
Int'l Code: 1985-003E
Perigee: 1,402.3 km
Apogee: 1,421.1 km
Inclination: 82.6 °
Period: 113.9 minutes
Semi major axis: 7782 km
RCS: 0.2161 m2 (medium)
Launch date: January 15, 1985
Source: Commonwealth of Independent States (former USSR) (CIS)
Launch site: PLESETSK MISSILE AND SPACE COMPLEX (PKMTR)
aabbcc
Your satellite tracking list
Your tracking list is empty




NASA's NSSDC Master Catalog

Two Line Element Set (TLE):
1 15473U 85003E   19015.93525215 +.00000025 +00000-0 +77800-4 0  9997
2 15473 082.6115 004.4669 0012038 183.6507 235.8643 12.64471289569205
Source of the keplerian elements: AFSPC